Retour au catalogue

ARIANE 5 R/B

ActifHEO
NORAD 33276·ROCKET BODY·🇫🇷 France

Lancé Aug 14, 2008 depuis Guiana Space Centre

Loading…

Prochains Passages (prochaines 24 heures)

TLE

FraisSource: Space-Track

Époque: Sep 14, 2026, 12:44 UTC

1 33276U 08038C   26257.53074269  .00001937  00000-0  62068-3 0  9993
2 33276   2.4082  50.9923 7029647 263.1092  19.7974  2.59578055159092

Suivez ARIANE 5 R/B en temps réel avec AllMySat

Download on the App Store